Location: Theydon Bois
(51.6750°N, 0.1050°E)
Time: 01:30:22
(UTC+00:00)

Envisat - Pass Details

Date: 14 December 2019
Orbit: 764 x 766 km, 98.1° (Epoch: 23 January)

Event Time Altitude Azimuth Distance (km) Brightness Sun altitude
Rises 07:08:22 0° 13° (NNE) 3,247 6.1 -7.3°
Reaches altitude 10° 07:10:41 10° 13° (NNE) 2,316 5.3 -7.0°
Maximum altitude 07:15:48 83° 287° (WNW) 779 3.0 -6.3°
Drops below altitude 10° 07:20:52 10° 200° (SSW) 2,298 5.6 -5.6°
Sets 07:23:10 0° 199° (SSW) 3,220 6.4 -5.3°
